Location: ????????
(38.4362°N, 22.8767°E)
Time: 15:20:36
(UTC+00:00)

Cosmos 2315 Rocket - Pass Details

Date: 23 April 2024
Orbit: 965 x 1002 km, 82.9° (Epoch: 18 May)

Event Time Altitude Azimuth Distance (km) Brightness Sun altitude
Rises 02:37:04 0° 348° (NNW) 3,661 7.2 -12.5°
Reaches altitude 10° 02:39:37 10° 344° (NNW) 2,710 6.5 -12.0°
Maximum altitude 02:45:39 56° 268° (W) 1,136 4.1 -11.0°
Drops below altitude 10° 02:51:40 10° 192° (SSW) 2,705 6.0 -9.9°
Sets 02:54:12 0° 188° (S) 3,652 6.7 -9.4°
